Waarnemingen

Advertentie
Mijn weer
Katterjakk A, Zweden (2019): temperatuur & dauwpunt: 19.02.2018 10:00:00 - 25.02.2018 10:00:00 (CET)Katterjakk A, Zweden (2019): windsnelheid & windstoten: 19.02.2018 10:00:00 - 25.02.2018 10:00:00 (CET)Katterjakk A, Zweden (2019): windrichting: 19.02.2018 10:00:00 - 25.02.2018 10:00:00 (CET)Katterjakk A, Zweden (2019): luchtdruk: 19.02.2018 10:00:00 - 25.02.2018 10:00:00 (CET)Katterjakk A, Zweden (2019): zicht: 19.02.2018 10:00:00 - 25.02.2018 10:00:00 (CET)Katterjakk A, Zweden (2019): neerslag: 19.02.2018 10:00:00 - 25.02.2018 10:00:00 (CET)
Datum & Tijd tt [°C] td [°C] ff [km/u] ff [kn] fx [km/u] fx [kn] dd ppp [hPa] vv [km] rr [mm]
25.02.2018 10:00:00 -22,9 -25,4 4 2 13 7 NNW 1048,0 13 0,0
25.02.2018 09:00:00 -24,4 -27,0 4 2 13 7 N 1048,0 50 0,0
25.02.2018 08:00:00 -23,4 -25,9 4 2 14 8 N 1047,9 50 0,0
25.02.2018 07:00:00 -23,9 -26,4 4 2 14 8 Z 1047,8 34 0,0
25.02.2018 06:00:00 -26,0 -28,8 5 3 10 5 W 1047,9 50 0,0
25.02.2018 05:00:00 -24,4 -27,0 2 1 18 10 NNW 1047,5 47 0,0
25.02.2018 04:00:00 -24,0 -26,5 11 6 18 10 Z 1047,2 11 0,0
25.02.2018 03:00:00 -24,4 -27,0 3 2 17 9 Z 1046,8 38 -
25.02.2018 02:00:00 -22,4 -24,5 4 2 17 9 ZZO 1046,5 50 0,0
25.02.2018 01:00:00 -20,6 -22,7 4 2 11 6 Z 1046,1 36 0,0
25.02.2018 00:00:00 -23,4 -25,9 5 3 10 6 ZZO 1046,2 46 0,0
24.02.2018 23:00:00 -24,0 -26,9 4 2 10 5 W 1045,9 12 0,0
24.02.2018 22:00:00 -20,3 -22,7 5 3 12 6 NW 1044,8 10 0,0
24.02.2018 21:00:00 -18,7 -21,0 6 3 18 10 NNW 1044,0 50 0,0
24.02.2018 20:00:00 -20,2 -22,8 5 3 18 10 ZZW 1043,9 50 0,0
24.02.2018 19:00:00 -19,7 -21,4 6 3 16 9 WZW 1043,3 50 0,0
24.02.2018 18:00:00 -22,5 -24,9 4 2 16 9 W 1043,3 50 0,0
24.02.2018 17:00:00 -22,3 -24,7 4 2 16 8 W 1042,6 50 0,0
24.02.2018 16:00:00 -20,6 -23,0 7 4 16 8 Z 1042,0 50 0,0
24.02.2018 15:00:00 -19,2 -22,4 5 3 16 8 Z 1041,2 50 0,0
24.02.2018 14:00:00 -17,0 -19,8 5 3 12 6 NNW 1041,0 50 0,0
24.02.2018 13:00:00 -18,0 -20,6 2 1 11 6 WNW 1040,8 50 0,0
24.02.2018 12:00:00 -19,6 -22,0 5 3 11 6 ZZW 1040,8 50 0,0
24.02.2018 11:00:00 -20,7 -23,2 4 2 15 8 Z 1040,6 39 0,0
24.02.2018 10:00:00 -21,8 -24,0 7 4 15 8 Z 1040,7 17 0,0
24.02.2018 09:00:00 -25,2 -27,9 3 2 11 6 Z 1040,4 50 0,0
24.02.2018 08:00:00 -23,5 -25,8 5 3 10 6 ZZW 1040,1 40 0,0
24.02.2018 07:00:00 -23,8 -26,1 3 1 10 5 ZZO 1039,8 50 0,0
24.02.2018 06:00:00 -24,7 -27,3 4 2 10 5 WZW 1039,1 50 0,0
24.02.2018 05:00:00 -24,4 -27,0 3 2 8 4 ZW 1038,5 3,5 0,0
24.02.2018 04:00:00 -23,1 -25,4 4 2 8 4 NW 1037,4 10 0,0
24.02.2018 03:00:00 -21,6 -23,6 3 2 12 6 ZW 1037,0 11 0,0
24.02.2018 02:00:00 -19,5 -22,4 6 4 12 6 NW 1036,3 50 0,0
24.02.2018 01:00:00 -17,1 -19,4 7 4 12 6 NNW 1035,3 50 0,0
24.02.2018 00:00:00 -16,5 -19,3 4 2 13 7 NW 1034,9 50 0,0
23.02.2018 23:00:00 -15,5 -18,3 6 3 13 7 NW 1034,5 50 0,0
23.02.2018 22:00:00 -15,0 -18,0 8 5 14 7 NNW 1033,9 50 0,0
23.02.2018 21:00:00 -14,6 -17,6 6 3 14 7 NW 1033,5 50 0,0
23.02.2018 20:00:00 -14,7 -17,7 8 5 16 9 NNW 1033,2 50 0,0
23.02.2018 19:00:00 -16,6 -19,5 4 2 16 9 ONO 1033,0 50 0,0
23.02.2018 18:00:00 -15,0 -18,0 8 4 19 10 NNW 1032,5 50 0,0
23.02.2018 17:00:00 -14,5 -17,3 10 5 19 10 N 1032,3 50 0,0
23.02.2018 16:00:00 -14,1 -17,2 11 6 16 9 NW 1032,1 50 0,0
23.02.2018 15:00:00 - - - - - - - - - -
23.02.2018 14:00:00 -14,2 -17,5 9 5 18 10 N 1032,1 50 0,0
23.02.2018 13:00:00 -12,9 -16,9 6 3 18 10 NNW 1031,7 38 0,0
23.02.2018 12:00:00 -12,8 -16,5 9 5 37 20 NNW 1031,8 38 0,0
23.02.2018 11:00:00 -12,3 -16,1 4 2 40 22 ZZW 1031,6 43 0,0
23.02.2018 10:00:00 -12,3 -15,7 27 14 43 23 O 1031,3 42 0,0
23.02.2018 09:00:00 -13,0 -15,9 27 15 49 26 O 1031,3 15 0,0
23.02.2018 08:00:00 -12,9 -15,3 28 15 49 26 O 1030,7 7 0,1
23.02.2018 07:00:00 -13,9 -15,7 9 5 21 11 OZO 1031,2 9 0,0
23.02.2018 06:00:00 -15,0 -16,4 4 2 18 10 WNW 1031,3 4,1 0,0
23.02.2018 05:00:00 -19,3 -21,3 3 2 18 10 ZZW 1031,8 50 0,0
23.02.2018 04:00:00 -18,6 -20,5 4 2 13 7 NNW 1031,5 50 0,0
23.02.2018 03:00:00 -16,7 -18,5 6 3 13 7 NW 1031,0 50 0,0
23.02.2018 02:00:00 -19,7 -22,3 6 3 13 7 ZW 1031,3 50 0,0
23.02.2018 01:00:00 -16,5 -19,9 6 3 19 10 NNW 1030,8 50 0,0
23.02.2018 00:00:00 -15,2 -18,8 5 3 19 10 WZW 1030,4 50 0,0
22.02.2018 23:00:00 -18,9 -21,8 4 2 13 7 NO 1030,6 50 0,0
22.02.2018 22:00:00 -16,7 -20,2 4 2 19 10 ZZW 1030,4 50 0,0
22.02.2018 21:00:00 -12,8 -16,6 8 4 19 10 Z 1029,6 50 0,0
22.02.2018 20:00:00 -18,3 -21,6 7 4 15 8 Z 1030,1 50 0,0
22.02.2018 19:00:00 -19,6 -22,5 3 2 11 6 WNW 1030,1 50 0,0
22.02.2018 18:00:00 -19,2 -22,5 4 2 11 6 ZZW 1030,0 50 0,0
22.02.2018 17:00:00 -20,8 -24,1 4 2 13 7 NNW 1030,1 50 0,0
22.02.2018 16:00:00 -17,7 -22,2 2 1 13 7 WZW 1029,0 50 0,0
22.02.2018 15:00:00 -17,0 -22,0 4 2 13 7 ZZO 1028,3 50 0,0
22.02.2018 14:00:00 -18,5 -22,9 3 2 13 7 W 1029,0 50 0,0
22.02.2018 13:00:00 -17,9 -23,0 3 1 16 9 ZZO 1028,6 50 0,0
22.02.2018 12:00:00 -16,1 -21,9 5 3 16 9 Z 1028,4 50 0,0
22.02.2018 11:00:00 -16,9 -22,3 7 4 13 7 Z 1028,4 46 0,0
22.02.2018 10:00:00 -19,1 -23,9 5 3 9 5 ZZW 1028,4 50 0,0
22.02.2018 09:00:00 -20,3 -24,8 4 2 10 5 Z 1028,6 50 0,0
22.02.2018 08:00:00 -24,4 -28,0 5 3 15 8 OZO 1028,7 50 0,0
22.02.2018 07:00:00 -19,3 -24,6 4 2 15 8 ZZW 1027,8 50 0,0
22.02.2018 06:00:00 -17,8 -23,7 6 4 13 7 ZW 1027,1 50 0,0
22.02.2018 05:00:00 -20,3 -25,3 6 3 16 9 ZZO 1027,5 50 0,0
22.02.2018 04:00:00 -22,0 -27,1 4 2 16 9 W 1027,8 50 0,0
22.02.2018 03:00:00 -19,7 -25,5 5 3 16 8 Z 1027,5 50 0,0
22.02.2018 02:00:00 -20,9 -25,9 5 3 11 6 ZZO 1027,6 50 0,0
22.02.2018 01:00:00 -17,1 -23,0 6 4 13 7 ZW 1026,6 50 0,0
22.02.2018 00:00:00 -20,9 -24,6 5 3 13 7 ZZO 1027,0 50 0,0
21.02.2018 23:00:00 -16,5 -22,1 3 2 13 7 ZW 1026,2 50 0,0
21.02.2018 22:00:00 -20,3 -24,0 7 4 13 7 ZZW 1026,4 50 0,0
21.02.2018 21:00:00 -14,9 -17,6 6 3 13 7 WZW 1025,3 50 0,0
21.02.2018 20:00:00 -17,9 -20,1 3 2 13 7 ZW 1025,6 50 0,0
21.02.2018 19:00:00 -19,9 -22,2 6 3 14 8 ZZW 1025,3 50 0,0
21.02.2018 18:00:00 -15,2 -17,0 6 3 14 8 ZW 1024,2 50 0,0
21.02.2018 17:00:00 -21,1 -23,4 8 4 18 10 ZZW 1025,0 50 0,0
21.02.2018 16:00:00 -20,2 -22,5 3 2 18 10 NO 1024,9 50 0,0
21.02.2018 15:00:00 -22,4 -25,0 6 3 17 9 Z 1025,4 50 0,0
21.02.2018 14:00:00 -22,4 -25,0 8 4 11 6 Z 1025,4 50 0,0
21.02.2018 13:00:00 -21,0 -23,5 5 3 11 6 ZZO 1025,3 50 0,0
21.02.2018 12:00:00 -21,1 -23,5 0 0 12 7 N 1025,4 50 0,0
21.02.2018 11:00:00 -20,8 -23,2 4 2 12 7 O 1025,4 44 0,0
21.02.2018 10:00:00 -23,0 -25,5 6 3 11 6 ZZW 1025,8 50 0,0
21.02.2018 09:00:00 -24,9 -27,6 4 2 12 6 ZZW 1026,4 50 0,0
21.02.2018 08:00:00 -24,8 -27,5 6 3 12 6 Z 1026,6 50 0,0
21.02.2018 07:00:00 -24,1 -26,7 6 4 11 6 ZW 1026,5 50 0,0
21.02.2018 06:00:00 -25,3 -28,1 6 3 11 6 ZZW 1027,2 36 0,0
21.02.2018 05:00:00 -24,7 -27,4 8 5 11 6 ZW 1027,5 17 0,0
21.02.2018 04:00:00 -23,9 -26,5 4 2 14 7 W 1027,6 50 0,0
21.02.2018 03:00:00 -22,8 -25,3 7 4 15 8 WZW 1027,6 50 0,0
21.02.2018 02:00:00 -21,4 -23,6 9 5 15 8 Z 1028,0 50 0,0
21.02.2018 01:00:00 -21,5 -23,9 8 4 12 7 Z 1028,2 50 0,0
21.02.2018 00:00:00 -22,3 -24,8 5 3 16 9 ZZW 1028,5 20 0,0
20.02.2018 23:00:00 -21,6 -24,0 7 4 16 9 ZZW 1028,9 50 0,0
20.02.2018 22:00:00 -21,7 -24,1 5 3 11 6 ZW 1028,9 50 0,0
20.02.2018 21:00:00 -22,3 -24,9 4 2 11 6 ZW 1029,3 50 0,0
20.02.2018 20:00:00 -21,3 -23,8 4 2 13 7 ZZW 1029,2 50 0,0
20.02.2018 19:00:00 -21,5 -24,0 4 2 13 7 ZZW 1029,4 46 0,0
20.02.2018 18:00:00 -21,0 -23,4 5 3 10 6 ZZW 1029,6 26 0,0
20.02.2018 17:00:00 -20,9 -23,3 5 3 10 6 ZZW 1029,8 12 0,0
20.02.2018 16:00:00 -19,7 -22,0 3 2 13 7 ZW 1029,7 46 0,0
20.02.2018 15:00:00 -19,5 -21,8 6 3 16 9 Z 1029,8 50 0,0
20.02.2018 14:00:00 -19,6 -21,7 5 3 16 9 Z 1030,0 20 0,0
20.02.2018 13:00:00 -16,9 -18,8 4 2 18 10 Z 1030,1 47 0,0
20.02.2018 12:00:00 -18,0 -20,2 3 2 18 10 ZZO 1030,2 23 0,0
20.02.2018 11:00:00 -19,0 -21,3 9 5 15 8 ZZW 1030,3 17 0,0
20.02.2018 10:00:00 -20,5 -22,8 3 2 15 8 ZZW 1030,3 2,1 0,0
20.02.2018 09:00:00 -19,5 -21,6 7 4 15 8 ZZW 1030,2 4,6 0,0
20.02.2018 08:00:00 -20,3 -22,7 0 0 14 8 N 1030,2 23 0,0
20.02.2018 07:00:00 -19,6 -21,9 3 2 16 8 Z 1030,0 27 0,0
20.02.2018 06:00:00 -19,6 -21,7 3 1 16 8 ZW 1029,9 24 0,0
20.02.2018 05:00:00 -19,7 -21,8 4 2 10 5 WZW 1029,9 15 0,0
20.02.2018 04:00:00 -20,1 -22,5 3 1 10 5 ZZW 1030,2 1,8 0,0
20.02.2018 03:00:00 -18,3 -20,3 5 3 8 4 WZW 1030,3 5 0,0
20.02.2018 02:00:00 -16,3 -18,4 3 2 7 4 ZZW 1030,2 4,5 0,0
20.02.2018 01:00:00 -15,5 -17,4 2 1 8 4 NO 1030,4 3,2 0,0
20.02.2018 00:00:00 -15,4 -17,2 0 0 8 4 N 1030,4 8 0,0
19.02.2018 23:00:00 -15,8 -17,7 4 2 6 3 NNO 1030,4 17 0,0
19.02.2018 22:00:00 -15,7 -17,6 2 1 6 3 WNW 1030,4 8 0,0
19.02.2018 21:00:00 -15,8 -17,7 0 0 6 3 N 1030,5 15 0,0
19.02.2018 20:00:00 -15,9 -17,8 3 2 6 4 ONO 1030,7 13 0,0
19.02.2018 19:00:00 -16,3 -18,2 0 0 8 5 N 1030,9 22 0,0
19.02.2018 18:00:00 -16,2 -18,1 3 2 8 5 ZW 1031,0 8 0,0
19.02.2018 17:00:00 -17,2 -19,3 2 1 6 4 ZZO 1031,2 33 0,0
19.02.2018 16:00:00 -18,6 -20,8 0 0 11 6 N 1031,5 46 0,0
19.02.2018 15:00:00 -18,9 -21,2 4 2 12 7 ZW 1031,4 9 0,0
19.02.2018 14:00:00 -16,3 -18,4 8 4 12 7 NO 1030,9 47 0,0
19.02.2018 13:00:00 -15,3 -17,2 4 2 6 4 Z 1031,0 16 0,0
19.02.2018 12:00:00 -17,1 -19,2 2 1 6 4 Z 1030,9 31 0,0
19.02.2018 11:00:00 -17,6 -19,6 0 0 7 4 N 1031,0 27 0,0
19.02.2018 10:00:00 -18,8 -21,0 0 0 8 5 N 1030,6 22 0,0

tt = temperatuur
td = dauwpunt
ff = windsnelheid
fx = windstoten
dd = windrichting
ppp = luchtdruk
vv = zicht
rr = neerslag

Weerstations in de omgeving